When you browse on this site, cookies collect data to enhance your experience and personalize the content and advertising you see.
Visit our Privacy Policy to learn more. By continuing to use the site, you agree to this use of cookies and data.
  • In Belgium
  • List of Countries
  • For 7 days
  • Water Temperature
  • Satellite Maps
  • Weather Map
  • Weather Widgets
  • user-avatar
    Login

    Hourly Weather Viktorovka

    Today, 22 April, Monday

    Time Temperature Precipitation Wind Pressure Humidity
    00:00 +9°C° 0 mm 0 mps 756 mmHg 40%
    01:00 +10°C° 0 mm 1 mps 756 mmHg 41%
    02:00 +9°C° 0 mm 1 mps 756 mmHg 43%
    03:00 +8°C° 0 mm 1 mps 756 mmHg 42%
    04:00 +8°C° 0 mm 1 mps 756 mmHg 43%
    05:00 +8°C° 0 mm 1 mps 756 mmHg 45%
    06:00 +8°C° 0 mm 1 mps 756 mmHg 46%
    07:00 +9°C° 0 mm 2 mps 756 mmHg 43%
    08:00 +12°C° 0 mm 2 mps 756 mmHg 41%
    09:00 +14°C° 0 mm 2 mps 757 mmHg 37%
    10:00 +15°C° 0 mm 2 mps 757 mmHg 34%
    11:00 +16°C° 0 mm 2 mps 757 mmHg 30%
    12:00 +17°C° 0 mm 3 mps 757 mmHg 27%
    13:00 +18°C° 0 mm 3 mps 756 mmHg 28%
    14:00 +18°C° 0 mm 2 mps 756 mmHg 28%
    15:00 +18°C° 0 mm 2 mps 756 mmHg 29%
    16:00 +18°C° 0 mm 2 mps 756 mmHg 30%
    17:00 +17°C° 0 mm 2 mps 756 mmHg 32%
    18:00 +17°C° 0 mm 2 mps 756 mmHg 33%
    19:00 +16°C° 0 mm 2 mps 756 mmHg 36%
    20:00 +15°C° 0 mm 2 mps 756 mmHg 39%
    21:00 +14°C° 0 mm 2 mps 756 mmHg 42%
    22:00 +13°C° 0 mm 2 mps 757 mmHg 44%
    23:00 +12°C° 0 mm 2 mps 757 mmHg 47%

    Tomorrow, 23 April, Tuesday

    Time Temperature Precipitation Wind Pressure Humidity
    00:00 +12°C° 0 mm 2 mps 757 mmHg 50%
    01:00 +12°C° 0 mm 2 mps 757 mmHg 50%
    02:00 +12°C° 0 mm 1 mps 757 mmHg 51%
    03:00 +12°C° 0 mm 1 mps 757 mmHg 52%
    04:00 +11°C° 0 mm 1 mps 758 mmHg 53%
    05:00 +11°C° 0 mm 1 mps 758 mmHg 53%
    06:00 +11°C° 0 mm 1 mps 758 mmHg 54%
    07:00 +12°C° 0 mm 1 mps 758 mmHg 51%
    08:00 +13°C° 0 mm 1 mps 758 mmHg 48%
    09:00 +15°C° 0 mm 1 mps 758 mmHg 45%
    10:00 +15°C° 0 mm 2 mps 758 mmHg 41%
    11:00 +16°C° 0 mm 2 mps 758 mmHg 38%
    12:00 +17°C° 0 mm 2 mps 758 mmHg 34%
    13:00 +17°C° 0 mm 3 mps 758 mmHg 34%
    14:00 +17°C° 0 mm 3 mps 758 mmHg 34%
    15:00 +18°C° 0 mm 3 mps 758 mmHg 34%
    16:00 +18°C° 0 mm 3 mps 757 mmHg 36%
    17:00 +17°C° 0 mm 3 mps 757 mmHg 37%
    18:00 +17°C° 0 mm 3 mps 757 mmHg 38%
    19:00 +16°C° 0 mm 3 mps 757 mmHg 42%
    20:00 +14°C° 0 mm 3 mps 757 mmHg 46%
    21:00 +12°C° 0 mm 3 mps 757 mmHg 50%
    22:00 +12°C° 0 mm 3 mps 757 mmHg 52%
    23:00 +12°C° 0 mm 3 mps 757 mmHg 53%

    Day after tomorrow, 24 April, Wednesday

    Time Temperature Precipitation Wind Pressure Humidity
    00:00 +12°C° 0 mm 3 mps 757 mmHg 55%
    01:00 +12°C° 0 mm 3 mps 757 mmHg 56%
    02:00 +12°C° 0 mm 3 mps 757 mmHg 58%
    03:00 +11°C° 0 mm 3 mps 757 mmHg 60%
    04:00 +11°C° 0 mm 3 mps 757 mmHg 61%
    05:00 +11°C° 0 mm 3 mps 757 mmHg 63%
    06:00 +11°C° 0 mm 3 mps 757 mmHg 65%
    07:00 +12°C° 0 mm 3 mps 757 mmHg 60%
    08:00 +14°C° 0 mm 3 mps 758 mmHg 56%
    09:00 +15°C° 0 mm 4 mps 758 mmHg 52%
    10:00 +17°C° 0 mm 4 mps 757 mmHg 48%
    11:00 +19°C° 0 mm 4 mps 757 mmHg 44%
    12:00 +20°C° 0 mm 4 mps 757 mmHg 39%
    13:00 +20°C° 0 mm 4 mps 757 mmHg 39%
    14:00 +21°C° 0 mm 4 mps 757 mmHg 38%
    15:00 +21°C° 0 mm 4 mps 756 mmHg 37%
    16:00 +21°C° 0 mm 4 mps 756 mmHg 39%
    17:00 +21°C° 0 mm 4 mps 756 mmHg 41%
    18:00 +21°C° 0 mm 3 mps 756 mmHg 43%
    19:00 +19°C° 0 mm 3 mps 756 mmHg 47%
    20:00 +18°C° 0 mm 3 mps 756 mmHg 50%
    21:00 +16°C° 0 mm 2 mps 756 mmHg 54%
    22:00 +15°C° 0 mm 2 mps 756 mmHg 56%
    23:00 +15°C° 0 mm 2 mps 756 mmHg 57%

    25 April, Thursday

    Time Temperature Precipitation Wind Pressure Humidity
    00:00 +14°C° 0 mm 2 mps 756 mmHg 59%
    01:00 +14°C° 0 mm 2 mps 756 mmHg 60%
    02:00 +13°C° 0 mm 2 mps 756 mmHg 62%
    03:00 +13°C° 0 mm 2 mps 756 mmHg 63%
    04:00 +12°C° 0 mm 2 mps 756 mmHg 65%
    05:00 +12°C° 0 mm 2 mps 757 mmHg 67%
    06:00 +12°C° 0 mm 2 mps 757 mmHg 68%
    07:00 +14°C° 0 mm 2 mps 757 mmHg 63%
    08:00 +16°C° 0 mm 2 mps 757 mmHg 57%
    09:00 +17°C° 0 mm 2 mps 757 mmHg 52%
    10:00 +19°C° 0 mm 2 mps 757 mmHg 47%
    11:00 +20°C° 0 mm 3 mps 757 mmHg 43%
    12:00 +22°C° 0 mm 3 mps 756 mmHg 38%
    13:00 +22°C° 0 mm 3 mps 756 mmHg 37%
    14:00 +24°C° 0 mm 3 mps 756 mmHg 35%
    15:00 +24°C° 0 mm 2 mps 756 mmHg 33%
    16:00 +24°C° 0 mm 2 mps 756 mmHg 35%
    17:00 +24°C° 0 mm 2 mps 755 mmHg 37%
    18:00 +23°C° 0 mm 2 mps 755 mmHg 39%
    19:00 +22°C° 0 mm 1 mps 755 mmHg 42%
    20:00 +20°C° 0 mm 1 mps 755 mmHg 46%
    21:00 +19°C° 0 mm 1 mps 755 mmHg 49%
    22:00 +18°C° 0 mm 1 mps 755 mmHg 52%
    23:00 +16°C° 0 mm 1 mps 755 mmHg 54%

    26 April, Friday

    Time Temperature Precipitation Wind Pressure Humidity
    00:00 +16°C° 0 mm 1 mps 755 mmHg 57%
    01:00 +15°C° 0 mm 1 mps 755 mmHg 59%
    02:00 +15°C° 0 mm 1 mps 755 mmHg 61%
    03:00 +14°C° 0 mm 1 mps 755 mmHg 62%
    04:00 +14°C° 0 mm 1 mps 755 mmHg 63%
    05:00 +14°C° 0 mm 1 mps 755 mmHg 64%
    06:00 +14°C° 0 mm 1 mps 755 mmHg 64%
    07:00 +15°C° 0 mm 1 mps 755 mmHg 58%
    08:00 +18°C° 0 mm 1 mps 755 mmHg 52%
    09:00 +20°C° 0 mm 1 mps 755 mmHg 47%
    10:00 +20°C° 0 mm 2 mps 755 mmHg 43%
    11:00 +21°C° 0 mm 2 mps 755 mmHg 39%
    12:00 +23°C° 0 mm 2 mps 755 mmHg 35%
    13:00 +23°C° 0 mm 2 mps 754 mmHg 35%
    14:00 +23°C° 0 mm 2 mps 754 mmHg 35%
    15:00 +24°C° 0 mm 1 mps 754 mmHg 35%
    16:00 +23°C° 0 mm 1 mps 754 mmHg 38%
    17:00 +23°C° 0 mm 1 mps 753 mmHg 41%
    18:00 +22°C° 0 mm 1 mps 753 mmHg 45%
    19:00 +21°C° 0 mm 1 mps 753 mmHg 47%
    20:00 +20°C° 0 mm 1 mps 753 mmHg 50%
    21:00 +19°C° 0 mm 1 mps 753 mmHg 53%
    22:00 +18°C° 0.5 mm 1 mps 753 mmHg 57%
    23:00 +16°C° 0.5 mm 1 mps 753 mmHg 62%

    27 April, Saturday

    Time Temperature Precipitation Wind Pressure Humidity
    00:00 +16°C° 0.5 mm 1 mps 753 mmHg 66%
    01:00 +15°C° 0.9 mm 1 mps 752 mmHg 70%
    02:00 +15°C° 0.9 mm 1 mps 752 mmHg 74%
    03:00 +14°C° 0.9 mm 1 mps 752 mmHg 77%
    04:00 +14°C° 0.2 mm 1 mps 752 mmHg 78%
    05:00 +13°C° 0.2 mm 0 mps 752 mmHg 79%
    06:00 +13°C° 0.2 mm 0 mps 752 mmHg 80%
    07:00 +15°C° 0 mm 1 mps 752 mmHg 74%
    08:00 +18°C° 0 mm 1 mps 752 mmHg 69%
    09:00 +18°C° 0 mm 2 mps 752 mmHg 64%
    10:00 +19°C° 0 mm 2 mps 752 mmHg 58%
    11:00 +20°C° 0 mm 2 mps 751 mmHg 52%
    12:00 +23°C° 0 mm 2 mps 751 mmHg 46%
    13:00 +22°C° 0 mm 3 mps 751 mmHg 46%
    14:00 +21°C° 0 mm 3 mps 751 mmHg 47%
    15:00 +21°C° 0 mm 3 mps 750 mmHg 48%
    16:00 +21°C° 0 mm 3 mps 750 mmHg 49%
    17:00 +21°C° 0 mm 3 mps 750 mmHg 51%
    18:00 +20°C° 0 mm 2 mps 750 mmHg 53%
    19:00 +19°C° 0 mm 2 mps 750 mmHg 56%
    20:00 +18°C° 0 mm 3 mps 750 mmHg 60%
    21:00 +17°C° 0 mm 3 mps 750 mmHg 63%
    22:00 +16°C° 0 mm 3 mps 750 mmHg 64%
    23:00 +16°C° 0 mm 3 mps 750 mmHg 65%
    Show more